[[{"header":{"parameterUnit":"m.s-1","parameterCategory":1,"la1":30.2991,"la2":30.254,"lo1":-89.0895,"lo2":-89.0444,"dy":0.0017,"dx":0.0017,"nx":28,"ny":28,"refTime":"2025-03-21T03:00:00:Z","depth":0,"parameterNumber":2,"parameterNumberName":"U-component_of_WINDS"},"data":[0,0,0,0,0,0,0,0,0,0,0,0,0,0,0,0,0,0,0,0,0,0,0,0,0,0,0,0,0,0,0,0,0,0,0,0,0,0,0,0,0,0,0,0,0,0,0,0,0,0,0,0,0,0,0,0,0,0,-0.41,-0.41,0,-0.4133,-0.4133,-0.4133,-0.4071,-0.4069,-0.4067,-0.4065,-0.4102,-0.4105,-0.4108,0,0,0,0,0,0,0,0,0,0,0,0,0,-0.3985,-0.3987,-0.41,-0.41,-0.4101,-0.4133,-0.4133,-0.4133,-0.4071,-0.4069,-0.4066,-0.4064,-0.4101,-0.4105,-0.4108,0,0,0,0,0,0,0,0,0,0,0,0,0,-0.4028,-0.3988,-0.41,-0.4073,-0.4071,-0.4132,-0.4133,-0.4134,-0.4072,-0.4069,-0.4066,-0.4063,-0.41,-0.4104,-0.4109,-0.4198,0,0,-0.4122,-0.4124,0,0,0,0,0,0,0,0,-0.4026,-0.4032,-0.4077,-0.4075,-0.4073,-0.4094,-0.4106,-0.4155,-0.4073,-0.4072,-0.4065,-0.4061,-0.4102,-0.4106,-0.412,-0.42,-0.4202,-0.4123,-0.4125,-0.4127,-0.4128,0,0,0,0,0,0,0,-0.4023,-0.403,-0.4113,-0.4077,-0.4075,-0.406,-0.4063,-0.4115,-0.4104,-0.4072,-0.4067,-0.4072,-0.4101,-0.4116,-0.412,-0.4202,-0.4123,-0.4126,-0.4129,-0.4131,-0.4356,-0.4359,0,0,0,0,0,0,-0.4023,-0.4028,-0.4112,-0.4114,-0.4041,-0.4065,-0.4068,-0.4091,-0.4104,-0.4102,-0.4074,-0.4069,-0.411,-0.4115,-0.4121,-0.4226,-0.4127,-0.4131,-0.4134,-0.4353,-0.4357,-0.4361,0,0,0,0,0,0,-0.402,-0.4031,-0.411,-0.407,-0.4079,-0.407,-0.4096,-0.4093,-0.4108,-0.4105,-0.4104,-0.4091,-0.4107,-0.4115,-0.4179,-0.4227,-0.4133,-0.4137,-0.4349,-0.4354,-0.4359,-0.4438,0,0,0,0,0,0,-0.4017,-0.403,-0.4064,-0.4071,-0.4081,-0.4168,-0.4099,-0.4096,-0.4115,-0.4108,-0.4121,-0.412,-0.4105,-0.4173,-0.4183,-0.4231,-0.4141,-0.4345,-0.4351,-0.4357,-0.4431,-0.4445,-0.4457,0,0,0,0,0,-0.4013,-0.4086,-0.4066,-0.4077,-0.4123,-0.4171,-0.4176,-0.4157,-0.4119,-0.4153,-0.4151,-0.412,-0.4219,-0.418,-0.4191,-0.4241,-0.4342,-0.4349,-0.4357,-0.4425,-0.4442,-0.4456,0,0,0,0,0,0,-0.4087,-0.4087,-0.4065,-0.4142,-0.4156,-0.416,-0.4203,-0.4176,-0.4203,-0.4196,-0.4171,-0.4175,-0.4243,-0.4248,-0.4204,-0.4327,-0.4274,-0.4284,-0.4322,-0.4338,-0.4351,-0.4349,-0.4144,0,0,0,0,0,-0.4112,-0.415,-0.4147,-0.4216,-0.4224,-0.4212,-0.4232,-0.4215,-0.423,-0.4237,-0.424,-0.4256,-0.4291,-0.4314,-0.4346,-0.443,-0.4432,-0.447,-0.4483,-0.4493,-0.4503,-0.4547,-0.4563,-0.4385,-0.4385,-0.4385,0,0,-0.4165,-0.4169,-0.4195,-0.423,-0.424,-0.428,-0.4218,-0.4263,-0.4293,-0.4244,-0.4304,-0.4307,-0.4323,-0.4397,-0.443,-0.4404,-0.4552,-0.4503,-0.4511,-0.4515,-0.4556,-0.4573,-0.4588,-0.439,-0.4389,-0.4389,0,0,-0.4281,-0.4288,-0.4345,-0.4355,-0.4369,-0.436,-0.4374,-0.4381,-0.438,-0.4439,-0.4403,-0.4438,-0.4499,-0.4511,-0.4526,-0.4644,-0.4616,-0.4655,-0.4723,-0.4766,-0.478,-0.4792,-0.4834,-0.485,-0.4664,-0.4664,-0.4664,0,-0.4345,-0.4403,-0.4378,-0.4425,-0.4442,-0.4396,-0.4454,-0.4465,-0.449,-0.4503,-0.4472,-0.4546,-0.4554,-0.463,-0.4658,-0.4671,-0.4686,-0.4654,-0.478,-0.4792,-0.4803,-0.4843,-0.4859,-0.4669,-0.4668,-0.4668,-0.4667,0,-0.4481,-0.4521,-0.4566,-0.4589,-0.461,-0.4662,-0.4645,-0.467,-0.465,-0.4645,-0.4705,-0.4713,-0.4745,-0.4761,-0.4744,-0.4834,-0.4817,-0.4783,-0.473,-0.4825,-0.4862,-0.4877,-0.4676,-0.4674,-0.4672,-0.4671,0,0,-0.4648,-0.4653,-0.467,-0.4679,-0.469,-0.4721,-0.4771,-0.48,-0.4822,-0.484,-0.4881,-0.4931,-0.4899,-0.4916,-0.4899,-0.4936,-0.5029,-0.4898,-0.4898,-0.4922,-0.5128,-0.5154,-0.5173,-0.5009,-0.5012,-0.5014,-0.5127,0,-0.4763,-0.4847,-0.4825,-0.4909,-0.4946,-0.4902,-0.4945,-0.4957,-0.4952,-0.4983,-0.4977,-0.5014,-0.4969,-0.4978,-0.5013,-0.501,-0.507,-0.5001,-0.5048,-0.505,-0.5046,-0.5192,-0.522,-0.5327,-0.5141,-0.5144,-0.5145,0,-0.491,-0.4931,-0.5019,-0.5021,-0.5036,-0.5075,-0.5099,-0.5129,-0.5141,-0.5134,-0.5151,-0.5126,-0.5175,-0.5119,-0.5186,-0.514,-0.5157,-0.5158,-0.5161,-0.5166,-0.5105,-0.5201,-0.536,-0.5377,-0.5168,-0.5166,-0.5165,0,-0.5023,-0.5074,-0.5132,-0.5141,-0.5146,-0.5174,-0.5178,-0.5186,-0.5204,-0.5225,-0.5237,-0.5264,-0.528,-0.5301,-0.5284,-0.5244,-0.5353,-0.5296,-0.535,-0.535,-0.5376,-0.5375,-0.5541,-0.5386,-0.5385,-0.5385,-0.5385,0,-0.5156,-0.5211,-0.5183,-0.5219,-0.5279,-0.5252,-0.5313,-0.5311,-0.5318,-0.5354,-0.5317,-0.5351,-0.5325,-0.5357,-0.5344,-0.5401,-0.5408,-0.5404,-0.54,-0.5408,-0.5409,-0.5421,-0.5413,-0.5389,-0.5388,-0.5388,-0.5387,0,-0.5294,-0.5277,-0.5337,-0.5336,-0.5336,-0.5381,-0.538,-0.5413,-0.5404,-0.5449,-0.5458,-0.5445,-0.548,-0.5463,-0.5501,-0.5492,-0.5565,-0.5551,-0.5561,-0.5558,-0.5613,-0.5608,-0.5793,-0.5816,-0.5645,-0.5646,-0.5648,0,-0.538,-0.5421,-0.5423,-0.5443,-0.5448,-0.5481,-0.5499,-0.5473,-0.5493,-0.5508,-0.554,-0.5571,-0.5595,-0.5653,-0.5647,-0.5675,-0.5661,-0.5724,-0.5666,-0.5672,-0.5663,-0.5661,-0.5665,-0.5737,-0.5739,-0.574,-0.5741,0,-0.5534,-0.5523,-0.555,-0.5573,-0.5595,-0.5612,-0.5627,-0.5645,-0.5619,-0.5644,-0.5678,-0.5697,-0.5733,-0.5765,-0.5788,-0.5792,-0.5763,-0.5759,-0.5773,-0.5783,-0.5787,-0.5786,-0.5594,-0.5756,-0.5754,-0.5753,-0.5753,-0.5752,-0.565,-0.5683,-0.5689,-0.5719,-0.5727,-0.574,-0.5771,-0.5765,-0.5792,-0.5819,-0.5802,-0.5842,-0.5851,-0.5879,-0.5887,-0.5918,-0.5893,-0.5914,-0.5919,-0.5925,-0.5932,-0.5781,-0.5922,-0.5922,-0.5921,-0.5921,-0.5921,0,-0.5803,-0.5803,-0.5831,-0.5851,-0.5875,-0.5842,-0.5856,-0.5878,-0.5913,-0.5923,-0.5946,-0.5985,-0.6015,-0.601,-0.6037,-0.6063,-0.605,-0.6071,-0.6069,-0.607,-0.5953,-0.5938,-0.608,-0.608,-0.608,-0.608,-0.608,-0.608,-0.5885,-0.5941,-0.593,-0.5988,-0.5988,-0.6026,-0.6037,-0.6049,-0.6056,-0.61,-0.6124,-0.612,-0.6123,-0.615,-0.6175,-0.6173,-0.6185,-0.6211,-0.6204,-0.6095,-0.6079,-0.6064,-0.605,-0.6214,-0.6214,-0.6319,-0.632,-0.6321]},{"header":{"parameterUnit":"m.s-1","parameterCategory":1,"la1":30.2991,"la2":30.254,"lo1":-89.0895,"lo2":-89.0444,"dy":0.0017,"dx":0.0017,"nx":28,"ny":28,"refTime":"2025-03-21T03:00:00:Z","depth":0,"parameterNumber":3,"parameterNumberName":"V-component_of_WINDS"},"data":[0,0,0,0,0,0,0,0,0,0,0,0,0,0,0,0,0,0,0,0,0,0,0,0,0,0,0,0,0,0,0,0,0,0,0,0,0,0,0,0,0,0,0,0,0,0,0,0,0,0,0,0,0,0,0,0,0,0,-4.1348,-4.1349,0,-4.1505,-4.1507,-4.1509,-4.1451,-4.1447,-4.1444,-4.144,-4.1599,-4.1606,-4.1614,0,0,0,0,0,0,0,0,0,0,0,0,0,-4.0993,-4.1,-4.1347,-4.1349,-4.1351,-4.1505,-4.1507,-4.1509,-4.1452,-4.1447,-4.1443,-4.1439,-4.1597,-4.1605,-4.1614,0,0,0,0,0,0,0,0,0,0,0,0,0,-4.1149,-4.1002,-4.1347,-4.1341,-4.1342,-4.1504,-4.1507,-4.151,-4.1453,-4.1447,-4.1442,-4.1437,-4.1594,-4.1605,-4.1616,-4.1792,0,0,-4.165,-4.1655,0,0,0,0,0,0,0,0,-4.114,-4.1162,-4.134,-4.1342,-4.1343,-4.1453,-4.144,-4.1604,-4.1454,-4.1411,-4.144,-4.1434,-4.1555,-4.1569,-4.161,-4.1799,-4.1806,-4.1651,-4.1658,-4.1663,-4.1666,0,0,0,0,0,0,0,-4.1129,-4.1154,-4.141,-4.1343,-4.1345,-4.133,-4.1346,-4.1471,-4.151,-4.1414,-4.141,-4.143,-4.1554,-4.1599,-4.1613,-4.1809,-4.1651,-4.1661,-4.1668,-4.1672,-4.215,-4.2156,0,0,0,0,0,0,-4.1118,-4.1146,-4.1405,-4.1414,-4.1226,-4.134,-4.1358,-4.1423,-4.1509,-4.1517,-4.1434,-4.1426,-4.1582,-4.16,-4.1619,-4.183,-4.1663,-4.1673,-4.168,-4.2144,-4.2151,-4.2158,0,0,0,0,0,0,-4.1111,-4.1142,-4.1398,-4.1279,-4.1311,-4.1352,-4.1425,-4.1429,-4.1474,-4.1524,-4.1531,-4.1473,-4.1579,-4.1603,-4.1749,-4.1835,-4.1679,-4.1689,-4.2137,-4.2146,-4.2154,-4.2256,0,0,0,0,0,0,-4.1101,-4.1139,-4.1208,-4.1281,-4.1317,-4.1528,-4.1431,-4.1436,-4.1494,-4.1485,-4.1562,-4.157,-4.1577,-4.1733,-4.1761,-4.1848,-4.1698,-4.213,-4.2141,-4.2152,-4.2245,-4.2267,-4.2286,0,0,0,0,0,-4.1088,-4.1229,-4.1211,-4.1243,-4.1404,-4.1533,-4.1553,-4.1559,-4.1501,-4.1569,-4.1602,-4.1567,-4.1821,-4.1748,-4.1779,-4.1871,-4.2124,-4.2138,-4.2151,-4.2236,-4.2262,-4.2285,0,0,0,0,0,0,-4.1164,-4.1239,-4.122,-4.1389,-4.1455,-4.1523,-4.1609,-4.1588,-4.1671,-4.1659,-4.1662,-4.168,-4.1831,-4.1865,-4.1783,-4.2046,-4.1964,-4.1984,-4.2018,-4.2044,-4.2064,-4.2052,-4.1707,0,0,0,0,0,-4.12,-4.13,-4.136,-4.1503,-4.1538,-4.1568,-4.1624,-4.1623,-4.1691,-4.1719,-4.1762,-4.1828,-4.1923,-4.1985,-4.2075,-4.2249,-4.2265,-4.2328,-4.2348,-4.2364,-4.2382,-4.2476,-4.2504,-4.2201,-4.2201,-4.2201,0,0,-4.1276,-4.133,-4.1392,-4.152,-4.1571,-4.1673,-4.1592,-4.1703,-4.1779,-4.1735,-4.1877,-4.1911,-4.1985,-4.2146,-4.222,-4.218,-4.2469,-4.2381,-4.2394,-4.2403,-4.2493,-4.2521,-4.2547,-4.221,-4.2209,-4.2207,0,0,-4.1467,-4.1518,-4.1643,-4.1696,-4.1775,-4.1794,-4.1824,-4.1896,-4.1917,-4.2059,-4.2028,-4.2117,-4.2281,-4.2335,-4.2384,-4.2595,-4.2566,-4.2624,-4.2731,-4.2822,-4.2846,-4.2867,-4.2942,-4.2969,-4.2641,-4.2641,-4.2641,0,-4.1552,-4.1706,-4.171,-4.1825,-4.1881,-4.1847,-4.1973,-4.2024,-4.2127,-4.2167,-4.2121,-4.2325,-4.2373,-4.2546,-4.2597,-4.2638,-4.2672,-4.2615,-4.2843,-4.2864,-4.2884,-4.2955,-4.2983,-4.2648,-4.2647,-4.2646,-4.2646,0,-4.1805,-4.1912,-4.2004,-4.2106,-4.2172,-4.2292,-4.2313,-4.238,-4.2373,-4.2397,-4.2542,-4.2598,-4.2698,-4.2739,-4.2733,-4.2912,-4.2885,-4.2841,-4.2759,-4.2919,-4.2986,-4.3014,-4.2657,-4.2655,-4.2653,-4.2651,0,0,-4.2048,-4.2151,-4.2185,-4.2231,-4.2315,-4.2397,-4.2514,-4.2614,-4.2671,-4.2743,-4.2841,-4.298,-4.294,-4.2996,-4.2995,-4.3076,-4.3239,-4.3022,-4.3024,-4.306,-4.3439,-4.3471,-4.3503,-4.3221,-4.3226,-4.323,-4.3432,0,-4.2246,-4.2454,-4.2461,-4.265,-4.2748,-4.2717,-4.282,-4.2882,-4.2907,-4.2993,-4.302,-4.3119,-4.3059,-4.3092,-4.3171,-4.3203,-4.3315,-4.3188,-4.3311,-4.3315,-4.3293,-4.3538,-4.3572,-4.3761,-4.3459,-4.3463,-4.3466,0,-4.2504,-4.2586,-4.2785,-4.2855,-4.2897,-4.2989,-4.308,-4.3163,-4.3232,-4.3245,-4.3307,-4.3295,-4.3414,-4.3328,-4.3491,-4.3405,-4.3455,-4.3478,-4.3486,-4.3497,-4.3401,-4.3556,-4.3821,-4.3849,-4.3508,-4.3505,-4.3502,0,-4.2661,-4.2821,-4.2961,-4.3001,-4.3086,-4.3151,-4.3189,-4.3253,-4.3312,-4.3392,-4.343,-4.3522,-4.3572,-4.3643,-4.3655,-4.3591,-4.3819,-4.3734,-4.3832,-4.3832,-4.3881,-4.3878,-4.4158,-4.3914,-4.3914,-4.3913,-4.3913,0,-4.2881,-4.3004,-4.3032,-4.3118,-4.3255,-4.3261,-4.3396,-4.3429,-4.3487,-4.3578,-4.3556,-4.3642,-4.3653,-4.3741,-4.3751,-4.3885,-4.3907,-4.392,-4.3921,-4.3922,-4.3921,-4.3955,-4.3942,-4.3921,-4.3919,-4.3918,-4.3916,0,-4.3079,-4.3103,-4.3254,-4.3322,-4.3342,-4.344,-4.3497,-4.3579,-4.3602,-4.3718,-4.3745,-4.3781,-4.3884,-4.3903,-4.4024,-4.403,-4.419,-4.4178,-4.4167,-4.4165,-4.4262,-4.4253,-4.4574,-4.4617,-4.4345,-4.4348,-4.435,0,-4.3218,-4.3312,-4.3391,-4.3451,-4.3492,-4.3589,-4.3649,-4.3659,-4.3722,-4.3808,-4.388,-4.398,-4.4061,-4.4227,-4.4263,-4.4355,-4.4345,-4.4451,-4.4359,-4.4357,-4.4346,-4.4341,-4.435,-4.4469,-4.4472,-4.4474,-4.4476,0,-4.3461,-4.3468,-4.3557,-4.365,-4.3723,-4.3796,-4.3865,-4.3915,-4.3934,-4.4006,-4.4112,-4.4175,-4.4299,-4.4399,-4.4491,-4.4528,-4.4506,-4.4505,-4.4533,-4.4535,-4.4524,-4.4531,-4.4215,-4.4498,-4.4496,-4.4494,-4.4493,-4.4492,-4.3634,-4.3716,-4.3784,-4.3883,-4.3937,-4.4002,-4.4082,-4.4115,-4.4204,-4.4306,-4.4306,-4.4421,-4.4487,-4.4609,-4.4653,-4.4742,-4.4708,-4.4748,-4.4758,-4.4768,-4.4777,-4.451,-4.4759,-4.4758,-4.4758,-4.4757,-4.4757,0,-4.3876,-4.3918,-4.4009,-4.4108,-4.4185,-4.4158,-4.4233,-4.43,-4.4402,-4.4466,-4.4546,-4.4667,-4.4764,-4.4808,-4.4903,-4.4966,-4.4958,-4.4991,-4.4986,-4.4995,-4.4802,-4.4769,-4.4995,-4.4995,-4.4995,-4.4995,-4.4995,-4.4995,-4.4011,-4.4148,-4.4164,-4.4327,-4.4368,-4.4481,-4.4527,-4.4587,-4.4638,-4.4774,-4.4855,-4.4883,-4.4939,-4.5037,-4.5125,-4.5135,-4.5171,-4.5208,-4.5214,-4.5033,-4.5008,-4.4985,-4.4954,-4.5216,-4.5216,-4.5399,-4.5401,-4.5402]}]]